DELTA 1 DEB, 29189

Orbit data source: Space-Track

DELTA 1 DEB, 29189 is space debris in LEO originally from a launch on Thu, 11 Jan 1968 UTC launched from the Air Force Western Test Range (AFWTR). Debris objects in space refer to the collection of defunct objects orbiting the Earth. Examples of debris include non-operational satellites, rocket bodies, and fragments generated from explosions, collisions, or faulty payload assembly.

Loading next visibility...
Identifier
29189, 1968-002N
Orbit
LEO
Country
Flag of USUS
Related business
Manufacturer
Unknown
Mission
Spacecraft
Bus & Motor
Unknown
Mass
Unknown
Launch date (UTC)
1968-01-11 (58 years ago)
Launch vehicle
Unknown
Launch site
Air Force Western Test Range (AFWTR)
Object type
Payload
Rocket body
Debris
Shape & HBR
Unknown
Radar Cross Section
Small (<0.1 m²)

Expand to show TLE details & history
Last TLE update: 2 weeks ago

TLE from 2 weeks ago
0 DELTA 1 DEB
1 29189U 68002N   25228.92798344  .00000405  00000-0  11256-2 0  9996
2 29189 105.8333 102.1149 0244737  32.7916 345.3124 13.14597196489545
Epoch: 2025-08-16T22:16Z
TLE epoch observation values (Epoch: 2025-08-16T22:16:17.769Z)
Latitude
16.68421°
Longitude
157.63411°
Altitude
1,028.017 km
Speed
7.425 km/s
True Right ascension
06h 29m 03s
True Declination
16° 35' 36"
Sunlit
Object was in daylight at epoch
Visualization orbit readout
Latitude
Unknown
Longitude
Unknown
Altitude
Unknown
Speed
Unknown
Apparent Right ascension
Unknown
Apparent Declination
Unknown
Sunlit
N/A
Visualization observer readout
Local Sidereal Time
17:50:36
Azimuth
Unknown
Elevation
Unknown
Doppler factor
Unknown
Orbital elements
Apogee altitude
1,388.718 km
Perigee altitude
1,017.632 km
Semi-major axis
7,581.312 km
Eccentricity
0.02447
Inclination
105.8333°
RAAN
102.1149°
Arg. of periapsis
32.7916°
True anomaly
344.57969°
Mean anomaly
345.3124°
Eccentric anomaly
344.94825°
Mean motion
3.28796 °/min
Orbital period
109.49 mins
BSTAR
0.0011256
Loading maneuver chart data...
Computing Atmospheric mass density...
Loading historical data...
Loading historical data...
Loading historical data...
Loading historical data...
Loading historical data...
Loading historical data...
Loading historical data...

Documentation

Showing up to 5 results
|